Location: Czu?�w
(50.1404°N, 18.9919°E)
Time: 12:21:24
(UTC+00:00)

CSL-04 Rocket - Pass Details

Date: 27 October 2020
Orbit: 805 x 861 km, 98.9° (Epoch: 24 November)

Event Time Altitude Azimuth Distance (km) Brightness Sun altitude
Rises 17:27:00 0° 160° (SSE) 3,425 6.6 -19.5°
Reaches altitude 10° 17:29:22 10° 159° (SSE) 2,491 5.9 -19.9°
Maximum altitude 17:34:54 83° 73° (ENE) 868 3.6 -20.7°
Drops below altitude 10° 17:40:27 10° 346° (NNW) 2,485 6.4 -21.6°
Sets 17:42:49 0° 346° (NNW) 3,417 7.1 -22.0°
